Location: Cazarilh
(42.9578°N, 0.5819°E)
Time: 21:17:04
(UTC+00:00)

Cosmos 1850 Rocket - Pass Details

Date: 11 December 2019
Orbit: 754 x 786 km, 74.0° (Epoch: 28 January)

Event Time Altitude Azimuth Distance (km) Brightness Sun altitude
Exits shadow 05:58:39 11° 330° (NNW) 2,253 6.0 -14.0°
Maximum altitude 06:03:34 53° 256° (WSW) 958 4.2 -13.2°
Drops below altitude 10° 06:08:44 10° 180° (S) 2,334 6.8 -12.3°
Sets 06:11:08 0° 175° (S) 3,256 7.6 -11.9°
